Find Starlink 33551

NORAD ID: 62110 Int'l Des: 2024-220 Owner: SPXS Country: US Constellation: starlink operational
LEOCIRCULAR

リアルタイム位置

3D地球を読み込み中...

Starlink 33551について

説明を読み込み中...

次回通過

Passes for default location (London). Set your location on the main map for personalized predictions.

高度履歴

Loading altitude history...

軌道要素

1 62110U 24220Y 26127.68699753 .00022020 00000-0 80730-3 0 9998
2 62110 43.0017 232.3959 0001451 270.3581 89.7104 15.27581243 82217
Epoch: May 7, 2026 • Age: 5 hours

現在のステータス

高度 487.5 km
速度 7.62 km/s
衛星直下点 -21.95°S, 24.37°E
打ち上げ日 Nov 25, 2024
運用期間 1.4 years
タイプ internet

技術仕様

分類 Payload
質量 530.00 kg
乾燥質量 500.00 kg
総質量 530.00 kg
長さ 0.30 m
直径 4.10 m
スパン 29.00 m
形状 Box + pan
製造者 SPXS
バスタイプ Starlink V2MO
フェーズステータス In Orbit
所有者/国 SPXS/US

Most Searched